Time,TemperatureF,DewpointF,PressureIn,WindDirection,WindDirectionDegrees,WindSpeedMPH,WindSpeedGustMPH,Humidity,HourlyPrecipIn,Conditions,Clouds,dailyrainin,SoftwareType,DateUTC
2013-01-12 00:03:00,56.2,49.0,29.87,SE,137,5.0,10.0,77,0.00,,,0.00,weatherlink.com 1.10,2013-01-12 05:03:00,
2013-01-12 00:18:00,56.5,49.0,29.86,WNW,283,2.0,5.0,76,0.00,,,0.00,weatherlink.com 1.10,2013-01-12 05:18:00,
2013-01-12 00:33:00,56.4,49.0,29.85,SSE,158,2.0,7.0,77,0.00,,,0.00,weatherlink.com 1.10,2013-01-12 05:33:00,
2013-01-12 00:48:00,56.3,49.0,29.85,SW,231,3.0,7.0,77,0.00,,,0.00,weatherlink.com 1.10,2013-01-12 05:48:00,
2013-01-12 01:03:00,56.2,49.0,29.85,SSW,198,6.0,10.0,78,0.00,,,0.00,weatherlink.com 1.10,2013-01-12 06:03:00,
2013-01-12 01:18:00,55.9,50.0,29.85,SSE,163,0.0,11.0,79,0.00,,,0.00,weatherlink.com 1.10,2013-01-12 06:18:00,
2013-01-12 01:33:00,56.1,50.0,29.85,WSW,238,1.0,12.0,81,0.00,,,0.00,weatherlink.com 1.10,2013-01-12 06:33:00,
2013-01-12 01:48:00,56.0,51.0,29.86,SE,145,4.0,11.0,83,0.00,,,0.00,weatherlink.com 1.10,2013-01-12 06:48:00,
2013-01-12 02:03:00,56.1,52.0,29.86,West,263,3.0,9.0,85,0.00,,,0.00,weatherlink.com 1.10,2013-01-12 07:03:00,
2013-01-12 02:18:00,56.4,53.0,29.86,ENE,66,1.0,13.0,87,0.00,,,0.00,weatherlink.com 1.10,2013-01-12 07:18:00,
2013-01-12 02:33:00,56.7,53.0,29.88,SW,229,5.0,9.0,87,0.00,,,0.00,weatherlink.com 1.10,2013-01-12 07:33:00,
2013-01-12 02:48:00,56.9,53.0,29.88,South,172,1.0,11.0,87,0.00,,,0.00,weatherlink.com 1.10,2013-01-12 07:48:00,
2013-01-12 03:03:00,56.7,53.0,29.88,SSW,210,2.0,9.0,88,0.00,,,0.00,weatherlink.com 1.10,2013-01-12 08:03:00,
2013-01-12 03:19:00,56.2,53.0,29.88,SW,225,1.0,7.0,88,0.00,,,0.00,weatherlink.com 1.10,2013-01-12 08:19:00,
2013-01-12 03:33:00,55.9,53.0,29.88,West,264,0.0,9.0,89,0.00,,,0.00,weatherlink.com 1.10,2013-01-12 08:33:00,
2013-01-12 03:48:00,55.7,53.0,29.88,WSW,243,4.0,6.0,90,0.00,,,0.00,weatherlink.com 1.10,2013-01-12 08:48:00,
2013-01-12 04:04:00,55.5,53.0,29.88,South,179,3.0,7.0,91,0.00,,,0.00,weatherlink.com 1.10,2013-01-12 09:04:00,
2013-01-12 04:19:00,55.4,53.0,29.88,SE,129,3.0,6.0,91,0.00,,,0.00,weatherlink.com 1.10,2013-01-12 09:19:00,
2013-01-12 04:34:00,55.4,53.0,29.87,East,93,1.0,7.0,91,0.00,,,0.00,weatherlink.com 1.10,2013-01-12 09:34:00,
2013-01-12 04:49:00,55.2,53.0,29.88,SSW,201,3.0,8.0,91,0.00,,,0.00,weatherlink.com 1.10,2013-01-12 09:49:00,
2013-01-12 05:04:00,54.9,52.0,29.88,ESE,105,1.0,7.0,91,0.00,,,0.00,weatherlink.com 1.10,2013-01-12 10:04:00,
2013-01-12 05:19:00,55.0,53.0,29.88,SE,140,3.0,7.0,92,0.00,,,0.00,weatherlink.com 1.10,2013-01-12 10:19:00,
2013-01-12 05:34:00,55.0,53.0,29.88,South,170,0.0,7.0,92,0.00,,,0.00,weatherlink.com 1.10,2013-01-12 10:34:00,
2013-01-12 05:49:00,55.0,53.0,29.88,South,183,0.0,9.0,93,0.00,,,0.00,weatherlink.com 1.10,2013-01-12 10:49:00,
2013-01-12 06:04:00,55.4,54.0,29.88,SSE,151,0.0,10.0,93,0.00,,,0.00,weatherlink.com 1.10,2013-01-12 11:04:00,
2013-01-12 06:19:00,55.7,54.0,29.88,East,79,2.0,7.0,93,0.00,,,0.00,weatherlink.com 1.10,2013-01-12 11:19:00,
2013-01-12 06:34:00,55.7,54.0,29.89,SSW,192,2.0,7.0,93,0.00,,,0.00,weatherlink.com 1.10,2013-01-12 11:34:00,
2013-01-12 06:49:00,55.6,54.0,29.89,East,88,0.0,5.0,93,0.00,,,0.00,weatherlink.com 1.10,2013-01-12 11:49:00,
2013-01-12 07:04:00,56.0,54.0,29.90,West,265,3.0,9.0,93,0.00,,,0.00,weatherlink.com 1.10,2013-01-12 12:04:00,
2013-01-12 07:19:00,56.0,54.0,29.90,SW,236,0.0,7.0,92,0.00,,,0.00,weatherlink.com 1.10,2013-01-12 12:19:00,
2013-01-12 07:34:00,55.7,54.0,29.91,SE,125,0.0,7.0,92,0.00,,,0.00,weatherlink.com 1.10,2013-01-12 12:34:00,
2013-01-12 07:49:00,55.4,54.0,29.92,SE,126,0.0,5.0,93,0.00,,,0.00,weatherlink.com 1.10,2013-01-12 12:49:00,
2013-01-12 08:04:00,55.3,54.0,29.92,SSE,156,2.0,6.0,94,0.00,,,0.00,weatherlink.com 1.10,2013-01-12 13:04:00,
2013-01-12 08:20:00,55.3,54.0,29.92,NE,41,0.0,4.0,94,0.00,,,0.00,weatherlink.com 1.10,2013-01-12 13:20:00,
2013-01-12 08:34:00,55.1,53.0,29.92,SE,146,0.0,4.0,93,0.00,,,0.00,weatherlink.com 1.10,2013-01-12 13:34:00,
2013-01-12 08:49:00,55.3,54.0,29.93,ESE,120,1.0,3.0,94,0.00,,,0.00,weatherlink.com 1.10,2013-01-12 13:49:00,
2013-01-12 09:04:00,55.3,54.0,29.93,SE,132,1.0,3.0,94,0.00,,,0.00,weatherlink.com 1.10,2013-01-12 14:04:00,
2013-01-12 09:19:00,55.4,54.0,29.94,SSW,212,1.0,4.0,94,0.00,,,0.00,weatherlink.com 1.10,2013-01-12 14:19:00,
2013-01-12 09:34:00,55.8,54.0,29.94,WNW,291,0.0,2.0,94,0.00,,,0.00,weatherlink.com 1.10,2013-01-12 14:34:00,
2013-01-12 09:49:00,56.3,55.0,29.94,WSW,246,0.0,2.0,94,0.00,,,0.00,weatherlink.com 1.10,2013-01-12 14:49:00,
2013-01-12 10:04:00,56.9,55.0,29.93,East,86,0.0,3.0,94,0.00,,,0.00,weatherlink.com 1.10,2013-01-12 15:04:00,
2013-01-12 10:19:00,58.5,57.0,29.94,WSW,256,0.0,4.0,93,0.00,,,0.00,weatherlink.com 1.10,2013-01-12 15:19:00,
2013-01-12 10:34:00,58.7,56.0,29.94,South,182,0.0,4.0,91,0.00,,,0.00,weatherlink.com 1.10,2013-01-12 15:34:00,
2013-01-12 10:49:00,59.4,57.0,29.94,WSW,252,0.0,3.0,90,0.00,,,0.00,weatherlink.com 1.10,2013-01-12 15:49:00,
2013-01-12 11:04:00,59.9,56.0,29.94,ESE,110,1.0,6.0,88,0.00,,,0.00,weatherlink.com 1.10,2013-01-12 16:04:00,
2013-01-12 11:19:00,60.7,57.0,29.94,WSW,246,0.0,3.0,87,0.00,,,0.00,weatherlink.com 1.10,2013-01-12 16:19:00,
2013-01-12 11:34:00,61.3,57.0,29.93,SSE,167,0.0,5.0,85,0.00,,,0.00,weatherlink.com 1.10,2013-01-12 16:34:00,
2013-01-12 11:49:00,61.4,57.0,29.93,SW,215,3.0,5.0,84,0.00,,,0.00,weatherlink.com 1.10,2013-01-12 16:49:00,
2013-01-12 12:04:00,61.5,56.0,29.93,WNW,294,0.0,3.0,83,0.00,,,0.00,weatherlink.com 1.10,2013-01-12 17:04:00,
2013-01-12 12:19:00,61.4,57.0,29.91,SW,232,0.0,2.0,84,0.00,,,0.00,weatherlink.com 1.10,2013-01-12 17:19:00,
2013-01-12 12:34:00,61.8,57.0,29.91,SW,217,1.0,3.0,84,0.00,,,0.00,weatherlink.com 1.10,2013-01-12 17:34:00,
2013-01-12 12:49:00,62.2,56.0,29.91,West,277,3.0,5.0,80,0.00,,,0.00,weatherlink.com 1.10,2013-01-12 17:49:00,
2013-01-12 13:04:00,62.4,56.0,29.91,South,190,1.0,3.0,80,0.00,,,0.00,weatherlink.com 1.10,2013-01-12 18:04:00,
2013-01-12 13:19:00,62.4,57.0,29.90,SSW,204,0.0,4.0,81,0.00,,,0.00,weatherlink.com 1.10,2013-01-12 18:19:00,
2013-01-12 13:34:00,62.5,56.0,29.90,SE,129,3.0,7.0,79,0.00,,,0.00,weatherlink.com 1.10,2013-01-12 18:34:00,
2013-01-12 13:49:00,62.9,57.0,29.90,SE,141,3.0,6.0,80,0.00,,,0.00,weatherlink.com 1.10,2013-01-12 18:49:00,
2013-01-12 14:04:00,63.9,56.0,29.88,WSW,253,1.0,4.0,75,0.00,,,0.00,weatherlink.com 1.10,2013-01-12 19:04:00,
2013-01-12 14:19:00,63.9,56.0,29.88,SSW,212,1.0,4.0,76,0.00,,,0.00,weatherlink.com 1.10,2013-01-12 19:19:00,
2013-01-12 14:35:00,64.1,56.0,29.86,SSE,167,1.0,4.0,76,0.00,,,0.00,weatherlink.com 1.10,2013-01-12 19:35:00,
2013-01-12 14:50:00,64.7,56.0,29.87,East,91,3.0,4.0,74,0.00,,,0.00,weatherlink.com 1.10,2013-01-12 19:50:00,
2013-01-12 15:05:00,63.9,56.0,29.87,SSE,150,1.0,3.0,76,0.00,,,0.00,weatherlink.com 1.10,2013-01-12 20:05:00,
2013-01-12 15:20:00,63.2,56.0,29.86,SE,142,2.0,3.0,77,0.00,,,0.00,weatherlink.com 1.10,2013-01-12 20:20:00,
2013-01-12 15:35:00,62.6,56.0,29.86,SSE,147,0.0,3.0,78,0.00,,,0.00,weatherlink.com 1.10,2013-01-12 20:35:00,
2013-01-12 15:50:00,62.1,56.0,29.84,SE,139,1.0,4.0,80,0.00,,,0.00,weatherlink.com 1.10,2013-01-12 20:50:00,
2013-01-12 16:05:00,61.8,56.0,29.84,East,84,3.0,4.0,81,0.00,,,0.00,weatherlink.com 1.10,2013-01-12 21:05:00,
2013-01-12 16:20:00,61.3,55.0,29.84,SE,125,0.0,3.0,81,0.00,,,0.00,weatherlink.com 1.10,2013-01-12 21:20:00,
2013-01-12 16:35:00,60.6,56.0,29.82,ESE,117,1.0,2.0,85,0.01,,,0.01,weatherlink.com 1.10,2013-01-12 21:35:00,
2013-01-12 16:50:00,59.1,56.0,29.82,ESE,120,0.0,2.0,89,0.03,,,0.03,weatherlink.com 1.10,2013-01-12 21:50:00,
2013-01-12 17:05:00,58.7,56.0,29.83,SE,135,0.0,2.0,91,0.03,,,0.03,weatherlink.com 1.10,2013-01-12 22:05:00,
2013-01-12 17:20:00,58.7,56.0,29.82,ESE,120,6.0,6.0,91,0.09,,,0.09,weatherlink.com 1.10,2013-01-12 22:20:00,
2013-01-12 17:35:00,58.4,56.0,29.81,SE,126,1.0,3.0,91,0.16,,,0.17,weatherlink.com 1.10,2013-01-12 22:35:00,
2013-01-12 17:51:00,57.9,56.0,29.81,ENE,70,0.0,2.0,93,0.23,,,0.26,weatherlink.com 1.10,2013-01-12 22:51:00,
2013-01-12 18:20:00,57.5,56.0,29.78,ESE,120,0.0,4.0,95,0.34,,,0.43,weatherlink.com 1.10,2013-01-12 23:20:00,
2013-01-12 18:35:00,57.6,56.0,29.78,NE,47,2.0,4.0,95,0.33,,,0.51,weatherlink.com 1.10,2013-01-12 23:35:00,
2013-01-12 18:50:00,57.6,56.0,29.77,East,94,6.0,7.0,95,0.55,,,0.80,weatherlink.com 1.10,2013-01-12 23:50:00,
2013-01-12 19:05:00,57.6,57.0,29.75,NE,52,7.0,7.0,96,0.90,,,1.25,weatherlink.com 1.10,2013-01-13 00:05:00,
2013-01-12 19:20:00,57.6,57.0,29.75,East,93,0.0,7.0,96,0.95,,,1.39,weatherlink.com 1.10,2013-01-13 00:20:00,
2013-01-12 19:35:00,57.5,56.0,29.74,ENE,75,1.0,1.0,96,0.88,,,1.40,weatherlink.com 1.10,2013-01-13 00:35:00,
2013-01-12 19:50:00,57.6,57.0,29.73,SE,142,3.0,4.0,96,0.58,,,1.40,weatherlink.com 1.10,2013-01-13 00:50:00,
2013-01-12 20:05:00,57.6,57.0,29.71,ENE,66,2.0,5.0,96,0.17,,,1.46,weatherlink.com 1.10,2013-01-13 01:05:00,
2013-01-12 20:20:00,57.3,56.0,29.73,SE,132,1.0,5.0,96,0.17,,,1.56,weatherlink.com 1.10,2013-01-13 01:20:00,
2013-01-12 20:35:00,57.3,57.0,29.72,NNW,343,0.0,2.0,97,0.24,,,1.64,weatherlink.com 1.10,2013-01-13 01:35:00,
2013-01-12 20:50:00,57.7,57.0,29.71,NNE,30,0.0,2.0,97,0.25,,,1.65,weatherlink.com 1.10,2013-01-13 01:50:00,
2013-01-12 21:05:00,58.0,57.0,29.71,NNW,347,0.0,2.0,97,0.18,,,1.65,weatherlink.com 1.10,2013-01-13 02:05:00,
2013-01-12 21:20:00,59.8,59.0,29.70,SE,140,6.0,10.0,97,0.08,,,1.65,weatherlink.com 1.10,2013-01-13 02:20:00,
2013-01-12 21:35:00,60.8,60.0,29.70,East,89,4.0,11.0,97,0.01,,,1.65,weatherlink.com 1.10,2013-01-13 02:35:00,
2013-01-12 21:50:00,61.9,61.0,29.68,SSE,160,4.0,13.0,97,0.00,,,1.65,weatherlink.com 1.10,2013-01-13 02:50:00,
2013-01-12 22:05:00,62.8,62.0,29.68,South,170,5.0,15.0,97,0.00,,,1.65,weatherlink.com 1.10,2013-01-13 03:05:00,
2013-01-12 22:20:00,63.2,62.0,29.67,SW,227,2.0,15.0,97,0.00,,,1.65,weatherlink.com 1.10,2013-01-13 03:20:00,
2013-01-12 22:35:00,63.7,63.0,29.67,WSW,243,5.0,17.0,96,0.00,,,1.65,weatherlink.com 1.10,2013-01-13 03:35:00,
2013-01-12 22:51:00,64.1,63.0,29.66,SSE,165,8.0,16.0,95,0.00,,,1.65,weatherlink.com 1.10,2013-01-13 03:51:00,
2013-01-12 23:06:00,64.3,63.0,29.65,SE,142,5.0,14.0,94,0.00,,,1.65,weatherlink.com 1.10,2013-01-13 04:06:00,
2013-01-12 23:21:00,64.5,63.0,29.64,SSW,210,2.0,14.0,93,0.00,,,1.65,weatherlink.com 1.10,2013-01-13 04:21:00,
2013-01-12 23:36:00,65.0,62.0,29.63,SSE,166,11.0,14.0,91,0.00,,,1.65,weatherlink.com 1.10,2013-01-13 04:36:00,
2013-01-12 23:51:00,65.1,62.0,29.62,SW,232,6.0,20.0,90,0.00,,,1.65,weatherlink.com 1.10,2013-01-13 04:51:00,